OZ1IEP-5 Weather Reports


time (UTC)temp
C
wind
direction
speed
KPH
gust
KPH
rain 1hr
cm
rain 24hr
cm
rain mn
cm
humidity
%
barometer
mb
20260507101006 12 301 8.0 19.3 0.00 0.00 0.00 74 1015.1
20260507100008 12 274 3.2 19.3 0.00 0.00 0.00 75 1015.1
20260507095005 12 290 4.8 19.3 0.00 0.00 0.00 76 1015.1
20260507094006 12 300 4.8 20.9 0.00 0.00 0.00 74 1015.0
20260507093008 12 316 4.8 19.3 0.00 0.00 0.00 73 1014.8
20260507092006 12 287 1.6 16.1 0.00 0.00 0.00 71 1014.7
20260507091006 12 225 1.6 8.0 0.00 0.00 0.00 70 1014.7
20260507090007 12 267 1.6 4.8 0.00 0.00 0.00 72 1014.7
20260507085005 11 234 0.0 4.8 0.00 0.00 0.00 70 1014.6
20260507084005 11 304 1.6 9.7 0.00 0.00 0.00 69 1014.6
20260507083008 11 246 0.0 4.8 0.00 0.00 0.00 70 1014.6
20260507082005 10 298 0.0 3.2 0.00 0.00 0.00 73 1014.6
20260507081006 10 245 0.0 4.8 0.00 0.00 0.00 71 1014.4
20260507080008 10 279 0.0 1.6 0.00 0.00 0.00 72 1014.2
20260507075005 10 309 0.0 1.6 0.00 0.00 0.00 68 1014.1
20260507074005 9 227 0.0 1.6 0.00 0.00 0.00 71 1014.1
20260507073009 8 226 0.0 1.6 0.00 0.00 0.00 71 1014.1
20260507072006 8 264 0.0 0.0 0.00 0.00 0.00 78 1014.1
20260507071006 8 259 0.0 0.0 0.00 0.00 0.00 80 1014.1
20260507070011 7 243 0.0 0.0 0.00 0.00 0.00 85 1014.0
20260507065006 7 243 0.0 0.0 0.00 0.00 0.00 89 1014.0
20260507064005 7 244 0.0 0.0 0.00 0.00 0.00 91 1014.0
20260507063008 7 244 0.0 0.0 0.00 0.00 0.00 92 1013.8
20260507062006 7 244 0.0 0.0 0.00 0.00 0.00 92 1013.7
20260507061005 6 244 0.0 0.0 0.00 0.00 0.00 93 1013.8
20260507060008 6 245 0.0 0.0 0.00 0.00 0.00 92 1013.6
20260507055006 6 139 0.0 0.0 0.00 0.00 0.00 93 1013.6
20260507054006 6 139 0.0 0.0 0.00 0.00 0.00 92 1013.6
20260507053008 6 139 0.0 0.0 0.00 0.00 0.00 93 1013.6
20260507052005 5 139 0.0 0.0 0.00 0.00 0.00 92 1013.5
20260507051006 5 139 0.0 0.0 0.00 0.00 0.00 92 1013.5
20260507050008 5 139 0.0 0.0 0.00 0.00 0.00 92 1013.3
20260507045006 5 139 0.0 0.0 0.00 0.00 0.00 92 1013.2
20260507044006 4 139 0.0 0.0 0.00 0.00 0.00 92 1013.1
20260507043007 4 139 0.0 0.0 0.00 0.00 0.00 92 1013.1
20260507042006 3 139 0.0 0.0 0.00 0.00 0.00 92 1013.0
20260507041007 3 139 0.0 0.0 0.00 0.00 0.00 92 1013.1
20260507040008 3 139 0.0 0.0 0.00 0.00 0.00 92 1013.0
20260507035008 3 139 0.0 0.0 0.00 0.00 0.00 92 1013.0
20260507034006 3 139 0.0 0.0 0.00 0.00 0.00 91 1013.0
20260507033010 3 139 0.0 0.0 0.00 0.00 0.00 91 1012.9
20260507032007 3 139 0.0 0.0 0.00 0.00 0.00 91 1012.8
20260507031006 3 139 0.0 0.0 0.00 0.00 0.00 91 1012.7
20260507030007 3 139 0.0 0.0 0.00 0.00 0.00 91 1012.7
20260507025006 3 139 0.0 0.0 0.00 0.00 0.00 91 1012.5
20260507024006 3 139 0.0 0.0 0.00 0.00 0.00 91 1012.5
20260507023008 3 139 0.0 0.0 0.00 0.00 0.00 91 1012.5
20260507022006 3 139 0.0 0.0 0.00 0.00 0.00 90 1012.4
20260507021006 3 139 0.0 0.0 0.00 0.00 0.00 90 1012.5
20260507020009 3 139 0.0 0.0 0.00 0.00 0.00 90 1012.5
20260507015006 3 139 0.0 0.0 0.00 0.00 0.00 90 1012.3
20260507014005 3 139 0.0 0.0 0.00 0.00 0.00 90 1012.4
20260507013008 3 139 0.0 0.0 0.00 0.00 0.00 89 1012.2
20260507012005 3 139 0.0 0.0 0.00 0.00 0.00 89 1012.1
20260507011006 3 139 0.0 0.0 0.00 0.00 0.00 89 1012.1
20260507010008 3 139 0.0 0.0 0.00 0.00 0.00 89 1012.1
20260507005005 3 139 0.0 0.0 0.00 0.00 0.00 88 1012.1
20260507004005 4 139 0.0 0.0 0.00 0.00 0.00 89 1012.0
20260507003008 4 139 0.0 0.0 0.00 0.00 0.00 89 1012.0
20260507002005 4 139 0.0 0.0 0.00 0.00 0.00 88 1012.0
20260507001006 4 139 0.0 0.0 0.00 0.00 0.00 88 1012.0
20260507000008 4 139 0.0 0.0 0.00 0.00 0.00 88 1012.0
20260506235006 4 139 0.0 0.0 0.00 0.00 0.00 87 1012.0
20260506234006 4 139 0.0 0.0 0.00 0.00 0.00 87 1012.0
20260506233007 4 139 0.0 0.0 0.00 0.00 0.00 86 1012.0
20260506232006 4 139 0.0 0.0 0.00 0.00 0.00 86 1012.0
20260506231005 4 139 0.0 0.0 0.00 0.00 0.00 86 1012.0
20260506230007 4 138 0.0 0.0 0.00 0.00 0.00 86 1011.9
20260506225006 5 138 0.0 0.0 0.00 0.00 0.00 85 1011.9
20260506224006 5 138 0.0 0.0 0.00 0.00 0.00 85 1011.9
20260506223008 5 138 0.0 0.0 0.00 0.00 0.00 84 1011.9
20260506222005 5 138 0.0 0.0 0.00 0.00 0.00 84 1011.9
20260506221005 5 138 0.0 0.0 0.00 0.00 0.00 83 1011.9
20260506220008 5 138 0.0 0.0 0.00 0.00 0.00 83 1011.9
20260506215006 5 138 0.0 0.0 0.00 0.00 0.00 83 1011.8
20260506214005 5 138 0.0 0.0 0.00 0.00 0.00 82 1011.6
20260506213008 6 138 0.0 0.0 0.00 0.00 0.00 82 1011.5
20260506212006 6 138 0.0 1.6 0.00 0.00 0.00 82 1011.5
20260506211005 6 138 0.0 1.6 0.00 0.00 0.00 82 1011.4
20260506210008 6 130 0.0 1.6 0.00 0.00 0.00 82 1011.4
20260506205006 6 141 0.0 3.2 0.00 0.00 0.00 81 1011.4
20260506204006 7 141 0.0 3.2 0.00 0.00 0.00 80 1011.1
20260506203008 7 139 1.6 4.8 0.00 0.00 0.00 79 1011.1
20260506202005 7 142 1.6 9.7 0.00 0.00 0.00 78 1011.0
20260506201006 7 141 0.0 4.8 0.00 0.00 0.00 76 1011.0
20260506200008 7 138 0.0 4.8 0.00 0.00 0.00 75 1010.9
20260506195005 7 131 0.0 3.2 0.00 0.00 0.00 74 1010.9
20260506194006 7 131 1.6 3.2 0.00 0.00 0.00 72 1010.9
20260506193008 7 130 0.0 4.8 0.00 0.00 0.00 71 1010.9
20260506192005 8 133 0.0 4.8 0.00 0.00 0.00 70 1010.9
20260506191005 8 143 0.0 1.6 0.00 0.00 0.00 68 1010.8
20260506190018 8 146 0.0 3.2 0.00 0.00 0.00 66 1010.7
20260506185005 9 143 0.0 3.2 0.00 0.00 0.00 64 1010.5
20260506184006 10 153 0.0 4.8 0.00 0.00 0.00 63 1010.4
20260506183008 10 141 3.2 11.3 0.00 0.00 0.00 61 1010.3
20260506182005 10 151 1.6 14.5 0.00 0.00 0.00 59 1010.2
20260506181005 10 156 3.2 9.7 0.00 0.00 0.00 58 1010.0
20260506180007 11 152 1.6 11.3 0.00 0.00 0.00 56 1009.9
20260506175005 11 149 1.6 9.7 0.00 0.00 0.00 55 1009.9
20260506174006 11 151 1.6 11.3 0.00 0.00 0.00 54 1009.9
20260506173008 11 154 4.8 11.3 0.00 0.00 0.00 53 1009.8
20260506172006 11 152 1.6 14.5 0.00 0.00 0.00 53 1009.8
20260506171006 11 144 3.2 12.9 0.00 0.00 0.00 51 1009.6
20260506170007 11 154 3.2 19.3 0.00 0.00 0.00 51 1009.6
20260506165006 11 167 3.2 11.3 0.00 0.00 0.00 51 1009.6
20260506164006 11 162 1.6 9.7 0.00 0.00 0.00 51 1009.7
20260506163009 11 182 0.0 11.3 0.00 0.00 0.00 52 1009.5
20260506162005 11 152 0.0 19.3 0.00 0.00 0.00 51 1009.4
20260506161005 11 158 0.0 4.8 0.00 0.00 0.00 52 1009.4
20260506160008 11 174 0.0 11.3 0.00 0.00 0.00 51 1009.4
20260506155005 11 160 1.6 19.3 0.00 0.00 0.00 52 1009.4
20260506154006 11 161 3.2 14.5 0.00 0.00 0.00 52 1009.4
20260506153008 11 178 1.6 19.3 0.00 0.00 0.00 51 1009.4
20260506152006 12 155 0.0 19.3 0.00 0.00 0.00 54 1009.4
20260506151006 12 164 3.2 19.3 0.00 0.00 0.00 57 1009.3
20260506150007 12 156 1.6 14.5 0.00 0.00 0.00 59 1009.3
20260506145006 12 148 8.0 19.3 0.00 0.00 0.00 58 1009.3
20260506144005 13 140 8.0 20.9 0.00 0.00 0.00 59 1009.2
20260506143007 13 119 1.6 4.8 0.00 0.00 0.00 57 1009.1
20260506142005 13 190 0.0 0.0 0.00 0.00 0.00 61 1009.0
20260506141006 13 300 0.0 4.8 0.00 0.00 0.00 62 1009.0
20260506140008 13 96 0.0 0.0 0.00 0.00 0.00 57 1009.0
20260506135005 13 109 0.0 1.6 0.00 0.00 0.00 60 1008.8
20260506134005 13 40 0.0 11.3 0.00 0.00 0.00 59 1008.8
20260506133007 13 53 1.6 11.3 0.00 0.00 0.00 56 1008.8
20260506132005 13 45 0.0 1.6 0.00 0.00 0.00 58 1008.7
20260506131006 12 45 0.0 4.8 0.00 0.00 0.00 61 1008.8
20260506130007 12 0 1.6 11.3 0.00 0.00 0.00 61 1008.8
20260506125005 12 37 0.0 8.0 0.00 0.00 0.00 59 1008.7
20260506124006 12 12 4.8 19.3 0.00 0.00 0.00 59 1008.7
20260506123008 13 8 1.6 19.3 0.00 0.00 0.00 56 1008.5
20260506122006 14 348 9.7 19.3 0.00 0.00 0.00 58 1008.4
20260506121005 14 2 1.6 19.3 0.00 0.00 0.00 57 1008.5
20260506120008 14 4 6.4 19.3 0.00 0.00 0.00 57 1008.5
20260506115006 13 358 4.8 24.1 0.00 0.00 0.00 55 1008.6
20260506114005 13 4 3.2 19.3 0.00 0.00 0.00 55 1008.7
20260506113008 13 0 9.7 19.3 0.00 0.00 0.00 56 1008.7
20260506112006 13 22 3.2 19.3 0.00 0.00 0.00 56 1008.8
20260506111005 13 4 4.8 22.5 0.00 0.00 0.00 57 1008.7
20260506110007 13 359 8.0 20.9 0.00 0.00 0.00 57 1008.7
20260506105005 13 342 4.8 19.3 0.00 0.00 0.00 59 1008.8
20260506104005 13 352 3.2 16.1 0.00 0.00 0.00 56 1008.8
20260506103008 13 1 4.8 16.1 0.00 0.00 0.00 54 1008.8
20260506102005 13 355 4.8 16.1 0.00 0.00 0.00 53 1008.8